This is the latest recevied weather packets stored in our database for station/object N1YZ. If no packets are shown the sender has not sent any weather packets the latest 10 day(s).
| Time | Temp. | Humidity | Pressure | Rain* | Wind** | Luminosity | Snow |
|---|---|---|---|---|---|---|---|
| 1777767394 | 16.11° C | 52% | 1035.4 hPa | 0 mm | - | 4 W/m² | - |
| 1777767091 | 16.11° C | 51% | 1035.3 hPa | 0 mm | - | 5 W/m² | - |
| 1777766789 | 16.67° C | 52% | 1035.2 hPa | 0 mm | - | 7 W/m² | - |
| 1777766486 | 16.67° C | 52% | 1035.1 hPa | 0 mm | - | 8 W/m² | - |
| 1777766182 | 16.67° C | 48% | 1035 hPa | 0 mm | - | 9 W/m² | - |
| 1777765880 | 16.67° C | 48% | 1035.2 hPa | 0 mm | - | 10 W/m² | - |
| 1777765576 | 17.22° C | 51% | 1034.7 hPa | 0 mm | - | 12 W/m² | - |
| 1777765275 | 17.22° C | 52% | 1034.6 hPa | 0 mm | - | 12 W/m² | - |
| 1777764970 | 17.22° C | 55% | 1034.7 hPa | 0 mm | - | 14 W/m² | - |
| 1777764667 | 17.78° C | 52% | 1034.7 hPa | 0 mm | - | 15 W/m² | - |
| 1777764363 | 17.78° C | 51% | 1034.7 hPa | 0 mm | - | 16 W/m² | - |
| 1777764061 | 17.78° C | 53% | 1034.6 hPa | 0 mm | - | 17 W/m² | - |
| 1777763757 | 17.78° C | 53% | 1034.6 hPa | 0 mm | - | 21 W/m² | - |
| 1777763455 | 17.78° C | 48% | 1035 hPa | 0 mm | - | 25 W/m² | - |
| 1777763153 | 18.33° C | 45% | 1034.7 hPa | 0 mm | - | 24 W/m² | - |
| 1777762851 | 18.33° C | 45% | 1034.7 hPa | 0 mm | - | 20 W/m² | - |
| 1777762546 | 18.33° C | 47% | 1034.6 hPa | 0 mm | - | 20 W/m² | - |
| 1777762244 | 18.33° C | 44% | 1034.5 hPa | 0 mm | - | 22 W/m² | - |
| 1777761940 | 18.89° C | 44% | 1034.5 hPa | 0 mm | - | 24 W/m² | - |
| 1777761637 | 18.89° C | 45% | 1034.6 hPa | 0 mm | - | 24 W/m² | - |
| 1777761335 | 18.89° C | 47% | 1034.7 hPa | 0 mm | - | 26 W/m² | - |
| 1777761033 | 18.89° C | 47% | 1034.5 hPa | 0 mm | - | 32 W/m² | - |
| 1777760730 | 19.44° C | 43% | 1034.7 hPa | 0 mm | - | 42 W/m² | - |
| 1777760426 | 19.44° C | 40% | 1034.5 hPa | 0 mm | - | 33 W/m² | - |
| 1777760122 | 19.44° C | 45% | 1034.6 hPa | 0 mm | - | 33 W/m² | - |
* Rain latest hour (hover to see other rain measurements)
** Current wind speed in m/s (hover to see current wind gust speed)